Location: Vienna
(48.2082°N, 16.3738°E)
Time: 09:46:58
(UTC+02:00)

ISS - Pass Details

Date: 16 July 2018
Orbit: 402 x 408 km, 51.6° (Epoch: 23 July)

Event Time Altitude Azimuth Distance (km) Brightness Sun altitude
Exits shadow 02:31:40 10° 280° (W) 1,474 -1.1 -17.5°
Reaches altitude 10° 02:31:41 10° 280° (W) 1,469 -1.1 -17.5°
Maximum altitude 02:34:52 45° 355° (N) 570 -2.7 -17.3°
Drops below altitude 10° 02:38:04 10° 70° (ENE) 1,473 -0.4 -17.0°
Sets 02:40:12 0° 77° (ENE) 2,335 0.6 -16.9°
